[[{"header":{"parameterUnit":"m.s-1","parameterCategory":1,"la1":30.2991,"la2":30.254,"lo1":-89.0895,"lo2":-89.0444,"dy":0.0017,"dx":0.0017,"nx":28,"ny":28,"refTime":"2025-05-29T09:00:00:Z","depth":0,"parameterNumber":2,"parameterNumberName":"U-component_of_WINDS"},"data":[0,0,0,0,0,0,0,0,0,0,0,0,0,0,0,0,0,0,0,0,0,0,0,0,0,0,0,0,0,0,0,0,0,0,0,0,0,0,0,0,0,0,0,0,0,0,0,0,0,0,0,0,0,0,0,0,0,0,0.5076,0.5075,0,0.4993,0.4992,0.4991,0.498,0.4981,0.4982,0.4982,0.4891,0.4888,0.4885,0,0,0,0,0,0,0,0,0,0,0,0,0,0.522,0.5217,0.5076,0.5075,0.5074,0.4993,0.4992,0.4991,0.498,0.4981,0.4982,0.4983,0.4892,0.4888,0.4884,0,0,0,0,0,0,0,0,0,0,0,0,0,0.5149,0.5216,0.5076,0.5059,0.5057,0.4993,0.4992,0.499,0.498,0.4981,0.4982,0.4983,0.4893,0.4889,0.4884,0.483,0,0,0.4869,0.4867,0,0,0,0,0,0,0,0,0.5153,0.5144,0.5063,0.506,0.5057,0.4998,0.5009,0.4937,0.4979,0.5009,0.4982,0.4984,0.4925,0.4918,0.4899,0.4826,0.4822,0.4869,0.4866,0.4864,0.4863,0,0,0,0,0,0,0,0.5158,0.5147,0.5043,0.5061,0.5058,0.5054,0.5045,0.4995,0.4961,0.5006,0.5005,0.4996,0.4924,0.4904,0.4897,0.4821,0.4869,0.4865,0.4862,0.486,0.4698,0.4696,0,0,0,0,0,0,0.5167,0.5151,0.5046,0.5041,0.5109,0.505,0.504,0.5016,0.4962,0.4955,0.4995,0.4996,0.4912,0.4903,0.4894,0.4826,0.4864,0.4859,0.4857,0.4699,0.4697,0.4696,0,0,0,0,0,0,0.517,0.5158,0.5049,0.5096,0.5082,0.5046,0.5019,0.5014,0.4994,0.4953,0.4946,0.4981,0.4912,0.4901,0.4846,0.4823,0.4857,0.4853,0.4701,0.4699,0.4697,0.4691,0,0,0,0,0,0,0.5174,0.5159,0.5139,0.5095,0.5079,0.5004,0.5018,0.5011,0.4986,0.4986,0.4938,0.4932,0.4912,0.4854,0.4842,0.4817,0.4849,0.4703,0.47,0.4697,0.4693,0.4689,0.4686,0,0,0,0,0,0.5179,0.514,0.5138,0.5125,0.5054,0.5003,0.4994,0.4974,0.4985,0.4963,0.4938,0.4933,0.4828,0.4848,0.4835,0.4808,0.4704,0.4701,0.4698,0.4695,0.469,0.4686,0,0,0,0,0,0,0.5179,0.5134,0.5131,0.5077,0.5044,0.5001,0.4974,0.4969,0.4931,0.4933,0.4908,0.4898,0.4844,0.4821,0.4844,0.4753,0.4767,0.4761,0.477,0.4764,0.4761,0.4766,0.4845,0,0,0,0,0,0.5174,0.5138,0.5099,0.5055,0.5039,0.501,0.4986,0.4975,0.4939,0.4924,0.4894,0.4858,0.4817,0.479,0.475,0.4691,0.4679,0.4666,0.4663,0.466,0.4654,0.4619,0.4613,0.4685,0.4685,0.4685,0,0,0.516,0.5131,0.5109,0.5054,0.5027,0.4988,0.4998,0.4957,0.4927,0.4917,0.4864,0.4841,0.4799,0.4742,0.4715,0.4721,0.4631,0.4655,0.4653,0.4649,0.4615,0.4609,0.4602,0.4683,0.4683,0.4684,0,0,0.5115,0.509,0.505,0.5024,0.4984,0.4965,0.4956,0.4914,0.4899,0.4846,0.4837,0.4801,0.4731,0.4701,0.4677,0.4622,0.4616,0.461,0.4589,0.4556,0.455,0.4545,0.4523,0.4516,0.4605,0.4605,0.4605,0,0.5102,0.5046,0.5029,0.4989,0.4964,0.4956,0.4914,0.4889,0.4837,0.4819,0.4827,0.4739,0.471,0.4646,0.4633,0.4614,0.4601,0.4614,0.4553,0.4547,0.4542,0.4521,0.4513,0.4604,0.4604,0.4604,0.4604,0,0.5031,0.4992,0.4964,0.4917,0.4889,0.4848,0.4824,0.4798,0.4789,0.4768,0.4714,0.468,0.4632,0.4616,0.4606,0.455,0.4555,0.4558,0.4571,0.4535,0.4515,0.4507,0.4603,0.4604,0.4604,0.4604,0,0,0.4981,0.4927,0.4917,0.4895,0.4851,0.482,0.4778,0.4734,0.4711,0.4676,0.4638,0.458,0.4584,0.4556,0.4543,0.4514,0.4471,0.4521,0.4519,0.4511,0.4404,0.44,0.4391,0.4468,0.4467,0.4465,0.4407,0,0.493,0.4857,0.4841,0.4777,0.474,0.4733,0.4696,0.4664,0.4645,0.4609,0.4587,0.4545,0.4554,0.4537,0.4509,0.4482,0.4449,0.4487,0.443,0.4428,0.4438,0.4381,0.4376,0.4323,0.4399,0.4398,0.4397,0,0.4859,0.4825,0.4757,0.4719,0.4703,0.467,0.4628,0.4595,0.4558,0.4546,0.4516,0.4506,0.446,0.4478,0.4414,0.444,0.4416,0.44,0.4397,0.4389,0.4409,0.4369,0.4306,0.4297,0.4385,0.4386,0.4387,0,0.4827,0.4764,0.4715,0.4697,0.4651,0.4628,0.4608,0.4573,0.4547,0.451,0.4493,0.445,0.4426,0.4393,0.4371,0.4387,0.4308,0.4324,0.4294,0.4294,0.4275,0.4276,0.4205,0.4264,0.4264,0.4265,0.4265,0,0.4769,0.4727,0.47,0.467,0.4623,0.4605,0.4559,0.4538,0.4507,0.4471,0.4463,0.4429,0.4404,0.4366,0.4349,0.4297,0.4286,0.4273,0.4269,0.4272,0.4274,0.4254,0.4256,0.4262,0.4263,0.4263,0.4264,0,0.4723,0.4704,0.465,0.4612,0.4602,0.4568,0.4535,0.4504,0.4486,0.444,0.4429,0.4398,0.4354,0.433,0.4273,0.4261,0.4202,0.4201,0.4215,0.4212,0.4183,0.4185,0.4094,0.408,0.4152,0.4151,0.4151,0,0.4687,0.4655,0.4614,0.4591,0.457,0.4532,0.4507,0.4489,0.4462,0.4419,0.4393,0.4348,0.4311,0.4239,0.4211,0.4167,0.4163,0.4135,0.4156,0.4161,0.4159,0.4161,0.4156,0.413,0.4129,0.4128,0.4128,0,0.4622,0.4615,0.4579,0.454,0.451,0.4478,0.4446,0.4427,0.4403,0.4374,0.4329,0.43,0.4244,0.4198,0.4153,0.413,0.4123,0.4122,0.4112,0.4114,0.4123,0.4115,0.4202,0.4123,0.4124,0.4124,0.4124,0.4124,0.4578,0.4549,0.4516,0.4477,0.4452,0.4422,0.4392,0.437,0.4333,0.4287,0.4278,0.423,0.4194,0.4133,0.4109,0.4069,0.4075,0.4061,0.4057,0.4053,0.4051,0.4132,0.4061,0.4061,0.4061,0.4062,0.4062,0,0.4511,0.449,0.4455,0.4411,0.438,0.4381,0.4346,0.4319,0.4277,0.4245,0.421,0.4158,0.4114,0.4083,0.4039,0.4013,0.4009,0.4001,0.4001,0.3996,0.405,0.4062,0.4005,0.4005,0.4005,0.4005,0.4005,0.4005,0.4473,0.4424,0.4412,0.435,0.4329,0.4283,0.4263,0.4235,0.4209,0.4152,0.4117,0.4098,0.4066,0.4019,0.3978,0.397,0.3953,0.3945,0.3936,0.3986,0.3992,0.3998,0.4009,0.3942,0.3942,0.3885,0.3885,0.3884]},{"header":{"parameterUnit":"m.s-1","parameterCategory":1,"la1":30.2991,"la2":30.254,"lo1":-89.0895,"lo2":-89.0444,"dy":0.0017,"dx":0.0017,"nx":28,"ny":28,"refTime":"2025-05-29T09:00:00:Z","depth":0,"parameterNumber":3,"parameterNumberName":"V-component_of_WINDS"},"data":[0,0,0,0,0,0,0,0,0,0,0,0,0,0,0,0,0,0,0,0,0,0,0,0,0,0,0,0,0,0,0,0,0,0,0,0,0,0,0,0,0,0,0,0,0,0,0,0,0,0,0,0,0,0,0,0,0,0,-5.5381,-5.5383,0,-5.5509,-5.5511,-5.5512,-5.5434,-5.543,-5.5426,-5.5423,-5.555,-5.5556,-5.5563,0,0,0,0,0,0,0,0,0,0,0,0,0,-5.5065,-5.5071,-5.5381,-5.5383,-5.5384,-5.5509,-5.5511,-5.5513,-5.5434,-5.543,-5.5425,-5.5421,-5.5547,-5.5556,-5.5564,0,0,0,0,0,0,0,0,0,0,0,0,0,-5.5198,-5.5073,-5.5381,-5.536,-5.536,-5.5509,-5.5511,-5.5513,-5.5435,-5.543,-5.5424,-5.5419,-5.5545,-5.5555,-5.5565,-5.574,0,0,-5.5596,-5.5601,0,0,0,0,0,0,0,0,-5.5191,-5.521,-5.5362,-5.5362,-5.5362,-5.545,-5.5446,-5.5589,-5.5437,-5.5406,-5.5423,-5.5416,-5.5521,-5.5533,-5.5569,-5.5746,-5.5751,-5.5597,-5.5603,-5.5608,-5.5611,0,0,0,0,0,0,0,-5.5182,-5.5204,-5.5432,-5.5364,-5.5364,-5.5344,-5.5356,-5.5473,-5.5493,-5.5409,-5.5403,-5.542,-5.552,-5.5559,-5.5571,-5.5753,-5.5597,-5.5606,-5.5612,-5.5616,-5.608,-5.6086,0,0,0,0,0,0,-5.5175,-5.5197,-5.5428,-5.5436,-5.5261,-5.5354,-5.5368,-5.5427,-5.5492,-5.5496,-5.5424,-5.5416,-5.5544,-5.5559,-5.5575,-5.5785,-5.5608,-5.5617,-5.5623,-5.6074,-5.6082,-5.6088,0,0,0,0,0,0,-5.5168,-5.5196,-5.5422,-5.5315,-5.5342,-5.5365,-5.5432,-5.5433,-5.5472,-5.5504,-5.5506,-5.5461,-5.554,-5.5561,-5.57,-5.5788,-5.5622,-5.5631,-5.6067,-5.6077,-5.6085,-5.6206,0,0,0,0,0,0,-5.5159,-5.5194,-5.5262,-5.5317,-5.5348,-5.5547,-5.5438,-5.5439,-5.5491,-5.548,-5.5539,-5.5543,-5.5538,-5.5685,-5.571,-5.5799,-5.5639,-5.6059,-5.6071,-5.6082,-5.6194,-5.6218,-5.6238,0,0,0,0,0,-5.5148,-5.529,-5.5266,-5.5294,-5.5434,-5.5552,-5.557,-5.5561,-5.5498,-5.5566,-5.5586,-5.5541,-5.5775,-5.57,-5.5728,-5.5821,-5.6054,-5.6068,-5.6081,-5.6184,-5.6213,-5.6238,0,0,0,0,0,0,-5.5243,-5.5297,-5.527,-5.5434,-5.5489,-5.5538,-5.5624,-5.5593,-5.5666,-5.5653,-5.5638,-5.5652,-5.5798,-5.5823,-5.5739,-5.5994,-5.5904,-5.5924,-5.5972,-5.6001,-5.6022,-5.6013,-5.5648,0,0,0,0,0,-5.5283,-5.5376,-5.5417,-5.5557,-5.5587,-5.5601,-5.5652,-5.5641,-5.5697,-5.5719,-5.5749,-5.5804,-5.589,-5.5946,-5.6027,-5.6197,-5.6208,-5.6275,-5.6297,-5.6315,-5.6333,-5.6425,-5.6455,-5.6134,-5.6134,-5.6134,0,0,-5.5366,-5.5407,-5.5466,-5.5578,-5.5619,-5.5714,-5.5621,-5.5725,-5.5796,-5.5734,-5.5868,-5.5893,-5.5953,-5.6108,-5.6178,-5.6134,-5.6424,-5.6333,-5.6347,-5.6355,-5.6442,-5.6473,-5.65,-5.6143,-5.6142,-5.614,0,0,-5.5567,-5.5608,-5.5729,-5.5773,-5.5837,-5.5846,-5.5875,-5.593,-5.5944,-5.6078,-5.6034,-5.6117,-5.6264,-5.6309,-5.6351,-5.657,-5.6531,-5.6596,-5.6712,-5.6802,-5.6828,-5.685,-5.6928,-5.6956,-5.6613,-5.6614,-5.6614,0,-5.5662,-5.5806,-5.5795,-5.5904,-5.5954,-5.5905,-5.6027,-5.6069,-5.6156,-5.6192,-5.6141,-5.6326,-5.6362,-5.6528,-5.6581,-5.6617,-5.6649,-5.6589,-5.6825,-5.6847,-5.6868,-5.6942,-5.6972,-5.6621,-5.662,-5.6619,-5.6619,0,-5.592,-5.602,-5.611,-5.6197,-5.6257,-5.6373,-5.6378,-5.644,-5.6424,-5.6437,-5.6575,-5.6617,-5.6706,-5.6744,-5.6728,-5.6908,-5.6878,-5.6827,-5.6736,-5.6906,-5.6976,-5.7004,-5.6632,-5.6629,-5.6627,-5.6625,0,0,-5.6184,-5.6265,-5.6298,-5.6337,-5.6404,-5.6481,-5.6593,-5.6681,-5.6735,-5.6796,-5.689,-5.7016,-5.6969,-5.7017,-5.7006,-5.7085,-5.7255,-5.7023,-5.7024,-5.7066,-5.7456,-5.7495,-5.7528,-5.723,-5.7236,-5.724,-5.7451,0,-5.639,-5.6588,-5.6582,-5.6766,-5.6858,-5.6812,-5.691,-5.6962,-5.6977,-5.7057,-5.7072,-5.7163,-5.7094,-5.7123,-5.7199,-5.7219,-5.7334,-5.7203,-5.7317,-5.7321,-5.7304,-5.7564,-5.7606,-5.7803,-5.7478,-5.7483,-5.7486,0,-5.6656,-5.6729,-5.6923,-5.6977,-5.7015,-5.7104,-5.7184,-5.7261,-5.7317,-5.7323,-5.7377,-5.7354,-5.7466,-5.7372,-5.7527,-5.7439,-5.7484,-5.7501,-5.7509,-5.7519,-5.7414,-5.7582,-5.7865,-5.7895,-5.7529,-5.7525,-5.7522,0,-5.683,-5.6976,-5.7111,-5.7146,-5.7212,-5.7275,-5.7306,-5.7357,-5.7411,-5.748,-5.7514,-5.7596,-5.764,-5.7703,-5.7701,-5.7633,-5.7859,-5.7764,-5.7866,-5.7866,-5.7916,-5.7913,-5.8211,-5.7945,-5.7944,-5.7944,-5.7943,0,-5.7061,-5.7182,-5.719,-5.7273,-5.7407,-5.7398,-5.753,-5.7554,-5.76,-5.7686,-5.765,-5.7731,-5.7724,-5.7806,-5.7805,-5.7934,-5.7954,-5.7961,-5.7959,-5.7965,-5.7964,-5.7995,-5.7981,-5.7951,-5.795,-5.7948,-5.7947,0,-5.7279,-5.7289,-5.7433,-5.7485,-5.7501,-5.7597,-5.764,-5.7719,-5.7731,-5.7841,-5.7865,-5.7885,-5.7979,-5.7984,-5.8092,-5.8091,-5.8248,-5.8231,-5.823,-5.8227,-5.8328,-5.8319,-5.8657,-5.8701,-5.8406,-5.8409,-5.8411,0,-5.7425,-5.7517,-5.7579,-5.7635,-5.767,-5.776,-5.7815,-5.7809,-5.7867,-5.7939,-5.8009,-5.81,-5.8173,-5.8326,-5.8348,-5.8431,-5.8416,-5.8529,-5.8428,-5.8431,-5.8418,-5.8413,-5.8422,-5.8548,-5.8552,-5.8554,-5.8556,0,-5.7685,-5.7686,-5.7767,-5.7851,-5.7917,-5.7982,-5.8042,-5.809,-5.8091,-5.8158,-5.8255,-5.8312,-5.8423,-5.8514,-5.8594,-5.8624,-5.8591,-5.8588,-5.8616,-5.8623,-5.8619,-5.8623,-5.8284,-5.858,-5.8578,-5.8576,-5.8575,-5.8574,-5.7872,-5.7952,-5.8009,-5.81,-5.8145,-5.8202,-5.8279,-5.8301,-5.8383,-5.8474,-5.8465,-5.8573,-5.8627,-5.8732,-5.8768,-5.8851,-5.8812,-5.8853,-5.8863,-5.8873,-5.8884,-5.8605,-5.8865,-5.8865,-5.8864,-5.8863,-5.8863,0,-5.8131,-5.8165,-5.8249,-5.8335,-5.8407,-5.8371,-5.8436,-5.8498,-5.8594,-5.8648,-5.8721,-5.8832,-5.892,-5.895,-5.9035,-5.9096,-5.9083,-5.9119,-5.9114,-5.9122,-5.8914,-5.8882,-5.9128,-5.9128,-5.9128,-5.9128,-5.9128,-5.9128,-5.8274,-5.8407,-5.8415,-5.857,-5.8602,-5.8709,-5.8749,-5.8802,-5.8845,-5.8971,-5.9045,-5.9064,-5.9109,-5.9197,-5.9276,-5.9282,-5.9315,-5.9358,-5.9358,-5.9163,-5.9136,-5.9111,-5.9081,-5.9365,-5.9365,-5.9559,-5.956,-5.9562]}]]